OBJECT J, 62385

Orbit data source: Space-Track

You're viewing an Uncataloged Satellite

Recently launched and/or uncataloged satellites may have evolving metadata. Metadata may include but not limited to: Owner, Maufacturer, Bus, Motor, and Mission.

OBJECT J, 62385 is a satellite in LEO that was launched on Sat, 21 Dec 2024 UTC via an FALCON 9 launch vehicle from the Air Force Western Test Range (AFWTR). Unknown objects in Earth's orbit typically refer to objects detected orbiting the Earth but have not yet been identified or cataloged. These objects could be anything from previously untracked satellites, spent rocket stages, debris from satellite collisions, or even natural meteoroids temporarily captured by Earth's gravity.

Loading next visibility...
Identifier
62385, 2024-247J
Orbit
LEO
Country
Flag of TBDTBD
Related business
None
Manufacturer
Unknown
Mission
Operational Commercial Communications
Bus & Motor
Unknown
Mass
Unknown
Launch date (UTC)
2024-12-21 (1 year ago)
Launch vehicle
FALCON 9
Launch site
Air Force Western Test Range (AFWTR)
Object type
Unknown
Shape & HBR
Box, 0.0 m
Radar Cross Section
0.004 m², Medium (>0.1 m² and < 1m²)

Expand to show TLE details & history
Last TLE update: 1 day ago

TLE from 1 day ago
0 OBJECT J
1 62385U 24247J   26170.64552931  .00034579  00000-0  57197-3 0  9994
2 62385  44.9984 237.9536 0008757 320.0597  39.9650 15.51620759 83837
Epoch: 2026-06-19T15:29Z
TLE epoch observation values (Epoch: 2026-06-19T15:29:33.732Z)
Latitude
-0.00004°
Longitude
97.69148°
Altitude
407.437 km
Speed
7.671 km/s
True Right ascension
15h 51m 48s
True Declination
0° 00' 00"
Sunlit
Object was in full shadow at epoch
Visualization orbit readout
Latitude
Unknown
Longitude
Unknown
Altitude
Unknown
Speed
Unknown
Apparent Right ascension
Unknown
Apparent Declination
Unknown
Sunlit
N/A
Visualization observer readout
Local Sidereal Time
07:18:55
Azimuth
Unknown
Elevation
Unknown
Doppler factor
Unknown
Orbital elements
Apogee altitude
419.567 km
Perigee altitude
407.672 km
Semi-major axis
6,791.757 km
Eccentricity
0.00088
Inclination
44.9984°
RAAN
237.9536°
Arg. of periapsis
320.0597°
True anomaly
40.02951°
Mean anomaly
39.965°
Eccentric anomaly
39.99725°
Mean motion
3.87766 °/min
Orbital period
92.84 mins
BSTAR
0.00057197
Loading maneuver chart data...
Computing Atmospheric mass density...
Loading historical data...
Loading historical data...
Loading historical data...
Loading historical data...
Loading historical data...
Loading historical data...
Loading historical data...

Documentation

Showing up to 5 results
|